This is the latest recevied weather packets stored in our database for station/object ZL3GL-4. If no packets are shown the sender has not sent any weather packets the latest 10 day(s).
| Time | Temp. | Humidity | Pressure | Rain* | Wind** | Luminosity | Snow |
|---|---|---|---|---|---|---|---|
| 1777972116 | 7.78° C | 100% | 1025.3 hPa | 0 mm | 0.45 m/s, 284° | - | - |
| 1777971269 | 7.78° C | 100% | 1025.3 hPa | 0 mm | 0.89 m/s, 45° | - | - |
| 1777970426 | 8.33° C | 100% | 1025.3 hPa | 0 mm | 0 m/s | - | - |
| 1777969582 | 8.33° C | 100% | 1025.4 hPa | 0 mm | 0.45 m/s, 37° | - | - |
| 1777968738 | 8.33° C | 100% | 1025.5 hPa | 0 mm | 1.34 m/s, 284° | - | - |
| 1777967894 | 8.33° C | 100% | 1025.7 hPa | 0 mm | 0.89 m/s, 15° | - | - |
| 1777967049 | 8.33° C | 100% | 1025.7 hPa | 0 mm | 0 m/s | - | - |
| 1777966204 | 8.33° C | 100% | 1025.9 hPa | 0 mm | 0.45 m/s, 349° | - | - |
| 1777965361 | 8.33° C | 100% | 1026.1 hPa | 0 mm | 0.45 m/s, 305° | - | - |
| 1777964516 | 8.33° C | 100% | 1026 hPa | 0 mm | 2.24 m/s, 343° | - | - |
| 1777963673 | 8.33° C | 100% | 1025.9 hPa | 0 mm | 1.34 m/s, 312° | - | - |
| 1777962828 | 8.33° C | 100% | 1025.9 hPa | 0 mm | 0.45 m/s, 353° | - | - |
| 1777961986 | 8.33° C | 100% | 1025.8 hPa | 0 mm | 1.34 m/s, 350° | - | - |
| 1777961142 | 8.33° C | 100% | 1025.7 hPa | 0 mm | 1.34 m/s, 346° | - | - |
| 1777960301 | 8.89° C | 100% | 1025.6 hPa | 0 mm | 1.34 m/s, 346° | - | - |
| 1777959455 | 8.89° C | 99% | 1025.4 hPa | 0 mm | 1.34 m/s, 349° | - | - |
| 1777958612 | 8.89° C | 99% | 1025.5 hPa | 0 mm | 0.89 m/s, 335° | - | - |
| 1777957769 | 9.44° C | 98% | 1025.4 hPa | 0 mm | 0.45 m/s, 345° | - | - |
| 1777956924 | 9.44° C | 98% | 1025.4 hPa | 0 mm | 0.89 m/s, 305° | - | - |
| 1777956084 | 9.44° C | 98% | 1025.5 hPa | 0 mm | 1.79 m/s, 328° | - | - |
| 1777955238 | 9.44° C | 98% | 1025.5 hPa | 0 mm | 0.45 m/s, 346° | - | - |
| 1777954397 | 9.44° C | 97% | 1025.6 hPa | 0 mm | 1.79 m/s, 359° | - | - |
| 1777953551 | 9.44° C | 96% | 1025.7 hPa | 0 mm | 1.34 m/s, 340° | - | - |
| 1777951863 | 10° C | 95% | 1025.8 hPa | 0 mm | 1.79 m/s, 294° | - | - |
| 1777951024 | 10° C | 96% | 1026 hPa | 0 mm | 0.89 m/s, 90° | - | - |
* Rain latest hour (hover to see other rain measurements)
** Current wind speed in m/s (hover to see current wind gust speed)